Home   Weather   Zoetermeer   Past weeks

Flag for Netherlands Past Weather in Zoetermeer, Netherlands — Yesterday and Last 2 Weeks

Now
59 °F

Scattered clouds.


Feels Like: 57 °F
Forecast: 54 / 63 °F
Wind: 12 mph from Southwest

Location: Rotterdam Zestienhoven Airport

Current Time: Sep 30, 2016 at 10:26:29 AM

Latest Report: Sep 30, 2016 at 9:55 AM


Visibility: N/A

Pressure: 29.89 "Hg

Humidity: 82%

Dew Point: 54 °F

Location of ZoetermeerLocation

Past Weather in Zoetermeer — Graph

°F

Zoetermeer Temperature Yesterday

Maximum temperature yesterday: 64 °F (at 1:25 PM)
Minimum temperature yesterday: 59 °F (at 5:55 PM)
Average temperature yesterday: 62 °F

High & Low Weather Summary for the Past Weeks

 TemperatureHumidityPressure
High84 °F (Sep 15, 3:55 PM)100% (Sep 17, 4:55 AM)30.30 "Hg (Sep 17, 4:55 AM)
Low45 °F (Sep 27, 3:25 AM)36% (Sep 27, 3:55 PM)29.77 "Hg (Sep 15, 3:25 PM)
Average62 °F77%30.08 "Hg
* Reported Sep 15 8:25 AM — Sep 30 8:55 AM, Zoetermeer, Weather by CustomWeather, © 2016

Note: Actual official high and low records may vary slightly from our data, if they occured in-between our weather recording intervals... More about our weather records

Advertising

Zoetermeer Weather History for the Previous 24 Hours

Scroll right to see more
 ConditionsComfort  
Time TempWeatherWind HumidityBarometerVisibility
8:55 AM
Fri, Sep 30
59 °FClear.8 mph77%29.89 "HgN/A
8:25 AM59 °FBroken clouds.8 mph82%29.89 "HgN/A
7:55 AM57 °FPassing clouds.7 mph82%29.89 "HgN/A
7:25 AM59 °FPassing clouds.7 mph82%29.89 "HgN/A
6:55 AM55 °FPassing clouds.3 mph88%29.86 "HgN/A
6:25 AM55 °FPassing clouds.5 mph88%29.86 "HgN/A
5:55 AM55 °FPassing clouds.3 mph88%29.86 "HgN/A
5:25 AM55 °FPassing clouds.5 mph82%29.86 "HgN/A
4:55 AM54 °FPassing clouds.5 mph88%29.89 "HgN/A
4:25 AM55 °FPassing clouds.5 mph88%29.89 "HgN/A
3:55 AM55 °FPassing clouds.3 mph82%29.89 "HgN/A
3:25 AM57 °FPassing clouds.5 mph82%29.89 "HgN/A
2:55 AM57 °FPassing clouds.6 mph82%29.89 "HgN/A
2:25 AM57 °FPassing clouds.6 mph82%29.89 "HgN/A
1:55 AM57 °FPassing clouds.6 mph82%29.89 "HgN/A
1:25 AM59 °FPassing clouds.6 mph72%29.89 "HgN/A
12:55 AM59 °FPassing clouds.5 mph77%29.89 "HgN/A
12:25 AM59 °FPassing clouds.8 mph77%29.92 "HgN/A
11:55 PM
Thu, Sep 29
59 °FPassing clouds.10 mph88%29.89 "HgN/A
11:25 PM61 °FPassing clouds.13 mph88%29.89 "HgN/A
10:55 PM61 °FPassing clouds.14 mph88%29.92 "HgN/A
10:25 PM61 °FPassing clouds.12 mph83%29.92 "HgN/A
9:55 PM61 °FClear.15 mph83%29.92 "HgN/A
9:25 PM61 °FClear.13 mph83%29.89 "HgN/A
8:55 PM61 °FClear.13 mph83%29.89 "HgN/A
8:25 PM61 °FClear.13 mph83%29.89 "HgN/A
7:55 PM61 °FClear.13 mph88%29.89 "HgN/A
7:25 PM61 °FPassing clouds.13 mph88%29.89 "HgN/A
6:55 PM61 °FBroken clouds.15 mph88%29.89 "HgN/A
6:25 PM59 °FCloudy.16 mph100%29.89 "HgN/A
5:55 PM59 °FRain. Broken clouds.10 mph100%29.89 "Hg2 mi
5:25 PM61 °FRain. Broken clouds.15 mph94%29.89 "Hg2 mi
4:55 PM61 °FSprinkles. Mostly cloudy.16 mph94%29.89 "Hg2 mi
4:25 PM63 °FDrizzle. Mostly cloudy.16 mph88%29.89 "Hg3 mi
3:55 PM63 °FDrizzle. Broken clouds.18 mph88%29.89 "Hg3 mi
3:25 PM63 °FDrizzle. Partly sunny.16 mph94%29.89 "Hg2 mi
2:55 PM63 °FDrizzle. Broken clouds.20 mph88%29.92 "Hg2 mi
2:25 PM64 °FMostly cloudy.21 mph83%29.92 "HgN/A
1:55 PM64 °FOvercast.22 mph83%29.92 "HgN/A
1:25 PM64 °FMostly cloudy.20 mph83%29.92 "HgN/A
12:55 PM63 °FMore clouds than sun.21 mph94%29.95 "HgN/A
12:25 PM63 °FMostly cloudy.20 mph94%29.95 "Hg4 mi
11:55 AM63 °FDrizzle. Mostly cloudy.20 mph88%29.95 "Hg2 mi
11:25 AM63 °FOvercast.21 mph83%29.95 "HgN/A
10:55 AM63 °FOvercast.17 mph83%29.95 "HgN/A
10:25 AM63 °FOvercast.18 mph88%29.98 "HgN/A
Weather by CustomWeather, © 2016

See weather overviewHow to use our weather pages